Temperature
19 19 19 19 18 17 19 19 19 20 20 20 20 19 19 18 18 18 18 18 18 18 18 18 18 18 18 18 18 17 17 17 17 17 17 17 17 17 17 17 17 17 17 17 17 17 17 17 17
19 19 19 19 17 18 19 19 19 20 20 20 20 19 18 18 18 18 18 18 18 18 18 18 18 18 18 17 17 17 17 17 17 17 16 16 16 16 16 16 16 16 16 16 17 17 17 17 17
19 19 19 17 18 18 19 20 20 20 21 20 20 19 18 18 18 18 18 18 18 18 18 18 18 17 17 17 17 17 17 17 16 16 16 16 16 16 16 16 16 16 16 16 16 16 17 17 17
19 19 19 17 19 19 20 20 20 20 21 20 19 18 18 18 19 18 18 18 18 18 18 17 17 17 17 17 17 17 16 16 16 16 16 16 16 15 15 15 15 16 16 16 16 16 16 16 16
19 19 18 18 19 19 19 20 20 20 20 19 19 18 18 18 19 19 18 18 18 18 18 17 17 17 17 17 17 17 16 16 16 16 16 15 15 15 15 15 15 15 15 15 16 16 16 16 16
19 18 18 18 19 20 20 20 20 20 20 19 19 18 18 18 19 18 18 18 18 18 18 17 17 17 17 17 17 16 16 16 16 16 16 15 15 15 15 15 15 15 15 15 15 15 15 16 16
18 17 18 18 19 20 20 20 20 20 20 19 19 18 18 18 18 18 18 18 18 18 18 17 17 17 17 16 16 16 16 16 16 16 15 15 15 15 15 15 15 15 15 15 15 15 15 15 16
19 17 18 18 19 20 20 21 21 20 20 20 20 18 18 18 18 18 18 18 18 18 18 17 17 17 17 16 16 16 16 16 16 15 15 15 15 15 15 15 15 15 15 15 15 15 15 15 15
19 17 18 19 19 20 20 20 21 21 20 20 20 20 19 19 18 18 18 18 18 18 18 18 17 17 17 17 16 16 16 16 16 15 15 15 15 15 15 15 14 14 14 14 15 15 15 15 15
18 17 19 19 19 19 20 20 20 20 20 19 19 19 19 19 19 19 19 18 18 18 18 18 17 17 17 17 16 16 16 16 16 15 15 15 15 15 15 14 14 14 14 14 14 15 15 15 15
18 18 19 19 20 20 20 20 21 20 19 19 20 19 19 19 19 19 19 19 19 18 18 18 18 17 17 17 17 16 16 16 16 15 15 15 15 15 14 14 14 14 14 14 14 15 15 15 15
18 19 19 20 20 20 20 21 20 21 21 21 21 20 20 19 19 19 19 19 19 19 18 18 18 17 17 17 17 16 16 16 16 15 15 15 15 14 14 14 14 14 14 14 14 14 14 15 15
18 19 20 20 20 20 21 21 20 20 21 21 20 20 20 20 20 19 19 19 19 19 18 18 18 18 17 17 17 16 16 16 16 15 15 15 15 14 14 14 14 14 14 14 14 14 14 15 15
19 19 19 20 20 20 20 20 20 20 21 21 20 20 20 20 20 20 19 19 19 19 19 18 18 18 17 17 17 16 16 16 16 15 15 15 14 14 14 14 14 14 14 14 14 14 14 15 15
19 19 19 19 20 20 20 20 20 20 21 20 20 20 20 20 20 20 20 20 19 19 19 18 18 18 17 17 17 16 16 16 16 15 15 15 14 14 14 14 14 14 14 14 14 14 14 15 15
19 18 18 19 20 20 20 19 19 20 20 20 20 20 20 20 20 20 20 20 20 19 19 19 18 18 17 17 17 16 16 16 15 15 15 15 14 14 14 14 14 14 14 14 14 14 15 15 15
18 18 18 19 19 20 20 19 19 20 20 20 20 20 20 20 20 20 20 20 20 19 19 19 18 18 18 17 17 16 16 16 15 15 15 15 14 14 14 14 14 14 14 14 14 14 14 15 15
18 18 18 18 19 19 19 19 18 19 20 19 20 20 20 20 21 21 21 20 20 19 19 19 18 18 17 17 17 16 16 16 15 15 15 15 14 14 14 14 14 14 14 14 14 14 14 14 15
18 18 18 18 19 19 18 18 18 19 19 19 19 20 20 20 21 21 21 20 20 20 19 19 18 18 18 17 17 16 16 16 15 15 15 15 15 14 14 14 14 14 14 14 14 14 14 15 15
18 18 18 18 19 19 18 18 18 18 18 18 19 20 20 20 21 21 21 20 20 20 19 19 19 18 18 17 17 16 16 16 15 15 15 15 15 14 14 14 14 14 14 14 14 14 14 14 14
18 18 18 18 19 18 18 18 18 18 18 18 19 19 20 20 21 21 21 20 20 20 19 19 19 18 18 17 17 16 16 16 15 15 15 15 15 14 14 14 14 14 14 14 14 14 14 14 14
18 18 19 19 18 17 18 18 18 17 17 17 18 19 20 20 20 20 21 20 20 20 19 19 19 18 18 17 17 17 16 16 15 15 15 15 15 14 14 14 14 14 14 14 14 14 14 14 14
18 18 18 18 17 17 17 17 17 17 18 17 17 18 19 20 20 20 20 20 20 20 19 19 18 18 18 17 17 17 16 16 16 15 15 15 15 15 14 14 14 14 14 14 14 14 14 14 14
18 18 17 16 17 17 18 17 17 16 18 18 17 18 19 20 20 20 20 20 20 19 19 19 18 18 18 17 17 17 16 16 16 15 15 15 15 15 15 14 14 14 14 14 14 14 14 14 14
17 17 17 17 17 17 17 17 17 18 18 18 18 18 19 19 20 20 20 20 19 19 19 19 18 18 17 17 17 17 16 16 16 15 15 15 15 15 15 15 14 14 14 14 14 14 14 14 14
17 17 17 17 17 16 17 17 17 18 18 18 18 18 19 19 19 20 20 19 19 19 19 18 18 18 17 17 17 16 16 16 16 15 15 15 15 15 15 15 14 14 14 14 14 14 14 14 14
17 17 17 16 17 17 17 17 17 17 17 17 17 18 18 19 19 19 19 19 19 19 18 18 18 18 17 17 17 16 16 16 16 15 15 15 15 15 15 14 14 14 14 14 14 14 14 14 14
17 16 15 16 16 17 17 17 17 17 17 16 16 17 18 19 19 19 19 19 18 18 18 18 18 17 17 17 16 16 16 16 16 15 15 15 15 15 14 14 14 14 14 14 14 14 14 14 14
17 17 16 15 16 16 17 17 18 18 17 16 16 17 18 19 19 19 18 18 18 18 18 18 17 17 17 16 16 16 16 16 15 15 15 15 15 14 14 14 14 14 14 14 14 14 13 13 13
18 18 16 17 16 16 16 17 19 17 17 17 17 18 18 19 19 18 18 18 18 18 17 17 17 17 16 16 16 16 16 15 15 15 15 14 14 14 14 14 14 14 14 13 13 13 13 13 13
Wind_Speed
2 2 3 3 5 4 2 2 1 2 2 2 5 7 7 5 3 5 1 4 5 5 6 8 10 10 10 10 10 10 10 9 9 9 9 9 8 8 8 8 7 7 7 7 7 7 6 6 6
0 2 3 4 4 3 1 2 0 0 3 4 5 6 6 5 4 5 3 4 6 6 7 8 10 10 9 9 9 10 9 9 9 9 9 8 8 8 8 7 7 7 7 7 7 7 6 6 6
1 3 3 4 3 3 3 1 1 2 3 2 4 5 4 4 4 4 4 7 6 6 6 8 10 10 10 9 9 9 9 8 8 8 8 8 8 8 8 8 8 7 7 7 7 7 7 7 7
3 3 4 4 3 1 2 2 2 3 3 5 5 5 4 3 4 5 7 8 7 5 6 8 10 10 9 9 9 8 8 8 8 8 8 7 7 7 7 8 8 8 8 7 7 7 7 7 7
3 4 4 3 1 1 0 1 1 3 3 4 4 5 4 4 7 10 8 8 7 5 6 7 9 9 8 8 8 8 7 7 7 7 7 7 7 7 7 8 8 8 8 8 7 7 7 7 7
4 4 4 3 1 1 1 0 2 4 4 5 5 5 3 3 7 7 7 7 5 5 5 6 7 8 7 7 7 6 6 6 6 6 6 6 6 6 7 7 8 8 8 9 9 8 8 8 7
3 4 4 3 2 1 1 1 4 5 5 4 4 5 3 2 4 6 7 6 4 4 4 3 4 4 5 5 4 5 5 5 6 7 7 7 7 7 7 7 8 9 9 9 10 9 9 9 8
3 4 3 2 3 1 0 2 3 5 5 4 4 7 5 5 6 6 6 5 4 3 2 2 2 3 3 3 3 4 5 6 7 8 8 8 9 9 8 8 9 9 9 10 10 10 10 9 8
2 4 2 3 3 1 1 3 3 4 6 4 3 4 6 10 9 7 5 4 2 1 1 1 1 1 2 2 3 5 6 8 8 9 9 9 9 9 9 9 9 9 9 10 11 10 10 9 9
3 3 3 2 3 2 2 3 3 5 5 4 6 6 9 10 9 8 6 5 4 3 2 1 1 0 1 2 4 5 6 7 8 7 8 8 8 8 8 10 10 10 10 10 11 11 10 9 8
2 3 2 1 3 2 3 2 2 7 3 5 9 11 10 9 8 8 6 5 5 4 3 2 2 1 0 1 3 4 5 6 6 7 6 7 8 8 9 9 10 10 10 9 10 10 9 8 7
1 1 1 2 3 3 2 2 4 3 4 6 10 11 10 10 9 8 7 5 4 4 3 2 2 1 1 1 2 3 3 4 4 6 6 6 5 5 6 6 7 7 7 7 7 6 7 7 7
1 1 1 3 5 3 3 4 4 3 5 9 10 9 9 9 7 5 5 4 4 4 3 2 3 2 2 2 2 3 2 3 4 5 6 6 4 3 4 4 6 7 7 6 5 5 6 6 6
1 2 3 4 4 2 4 3 4 3 7 9 8 8 7 7 6 5 5 5 4 4 3 2 3 3 3 3 2 2 3 4 5 5 6 6 5 4 3 4 4 6 6 6 5 4 4 4 4
2 4 5 3 3 1 5 4 2 4 8 8 6 6 5 5 5 6 6 6 6 4 3 3 3 3 4 4 3 3 4 4 4 4 5 6 6 5 4 3 4 5 7 6 5 5 5 4 4
3 4 3 2 2 2 5 3 1 4 8 7 5 4 4 4 5 5 5 5 5 5 4 3 4 5 5 4 4 4 4 4 4 4 6 6 6 6 5 3 4 7 7 5 4 4 4 5 5
3 3 2 2 2 2 4 2 1 3 6 5 5 4 4 3 2 3 5 6 5 5 5 5 5 6 5 5 5 5 5 4 4 5 5 6 6 6 5 4 4 7 5 4 4 4 3 4 5
3 3 2 1 1 3 4 2 1 2 5 4 3 2 3 3 3 3 4 6 6 5 6 6 6 6 6 5 4 4 4 3 4 4 4 5 6 6 6 4 5 6 4 5 5 4 4 3 4
4 4 4 1 1 4 5 3 1 1 3 3 3 3 3 3 1 2 4 6 7 6 6 6 6 5 4 3 3 3 2 2 2 3 5 5 5 6 5 4 4 5 4 4 5 3 5 5 4
4 5 3 2 3 3 5 4 2 2 1 3 4 4 4 2 2 3 4 4 6 6 6 6 6 5 4 3 2 2 2 1 1 2 5 6 6 6 4 4 3 4 4 6 6 4 3 4 5
3 4 4 3 3 5 5 4 2 1 1 1 1 2 3 4 4 3 4 4 5 5 6 6 5 5 4 4 4 3 3 3 3 4 4 5 6 6 5 4 3 4 3 4 4 4 4 3 4
3 4 5 4 4 2 2 2 3 1 1 0 1 1 2 3 3 4 4 4 4 5 5 6 6 5 4 4 4 4 3 2 1 2 2 4 6 6 6 5 4 3 3 4 4 4 3 3 3
4 4 4 3 4 3 3 3 4 1 3 4 4 3 2 3 5 5 4 4 4 5 6 6 6 5 4 4 5 5 4 2 1 2 3 4 4 6 6 5 4 3 3 3 4 4 4 3 2
7 6 5 4 3 1 2 3 5 5 7 6 5 4 3 3 4 4 4 5 5 5 6 6 7 5 4 5 4 5 4 3 3 3 3 3 3 4 5 4 4 3 3 3 3 3 3 3 2
4 5 3 1 1 3 2 3 7 6 6 7 8 6 4 4 5 5 5 5 5 6 6 6 7 5 4 4 4 3 3 3 2 1 1 2 3 3 4 3 3 3 3 3 3 3 3 3 3
5 6 6 5 5 2 1 4 5 3 2 5 6 6 5 5 4 5 5 5 6 6 6 6 7 5 4 4 3 3 3 2 1 1 1 1 1 2 3 3 3 3 3 3 3 3 3 3 3
6 4 4 5 4 2 3 4 5 1 3 5 7 7 7 6 5 5 5 5 6 6 6 6 7 5 5 4 4 4 3 3 2 2 2 1 2 2 3 3 3 3 3 3 3 3 3 3 3
4 6 5 5 5 2 3 4 5 7 8 7 8 8 7 6 6 5 5 5 5 5 5 6 6 6 4 4 4 3 2 2 2 3 3 2 3 3 3 3 3 3 3 3 3 3 3 4 4
4 4 4 4 5 6 3 6 7 11 12 12 11 10 9 9 8 6 5 5 5 5 6 6 6 6 5 4 4 4 3 3 3 3 2 2 2 3 3 3 3 4 4 3 3 3 3 4 4
6 7 7 5 4 4 4 6 3 8 10 12 11 9 8 7 7 6 6 6 6 6 5 6 5 5 4 4 4 4 3 4 4 3 3 3 3 3 3 3 4 4 4 4 3 4 4 3 4
Wind_Direction
304 78 88 66 61 57 42 335 314 349 56 55 64 75 82 69 81 121 135 133 126 116 117 118 116 113 107 101 96 92 88 84 81 79 77 75 70 65 61 56 51 46 42 39 35 29 25 23 23
139 100 66 67 87 82 1 300 302 93 141 135 76 72 71 68 72 105 124 130 119 118 118 119 116 113 109 103 97 92 88 84 82 79 74 71 67 61 56 52 45 40 36 32 29 22 19 16 15
125 81 83 79 97 142 162 207 151 92 101 93 73 58 71 88 114 132 148 132 115 110 112 119 116 112 108 103 98 94 89 86 83 78 72 67 60 54 49 44 40 35 30 29 27 21 16 12 10
82 57 64 75 91 204 176 175 148 124 78 58 89 68 59 61 137 138 132 123 114 106 112 121 118 113 109 104 101 97 90 85 80 75 68 61 54 48 42 36 31 28 25 23 20 14 8 6 4
67 83 71 71 52 335 5 154 136 96 75 65 88 86 50 15 107 123 125 122 124 119 118 124 121 117 113 108 102 94 87 81 72 64 55 47 41 38 34 28 24 21 17 15 12 5 0 355 353
58 69 86 104 56 33 29 108 103 94 95 90 87 90 60 93 118 130 128 125 125 126 120 121 123 121 118 112 105 96 85 69 56 45 37 30 25 23 22 21 15 11 11 10 8 5 1 358 355
95 89 106 120 101 55 70 98 113 114 108 107 109 98 104 138 146 133 123 117 111 113 107 98 102 112 117 112 102 89 70 51 39 32 29 25 19 15 12 10 6 6 8 8 6 3 2 2 360
108 96 88 109 120 109 8 87 96 107 106 108 109 128 159 178 142 113 99 96 96 89 84 84 76 73 64 51 56 53 42 34 30 29 26 26 24 19 13 8 3 2 6 8 8 8 10 9 8
80 78 131 161 146 139 50 85 68 80 100 82 89 133 146 134 124 111 99 89 101 129 69 77 67 58 44 14 19 26 26 24 25 25 24 25 21 19 18 14 13 12 13 14 15 16 15 15 13
85 125 181 174 155 142 102 96 112 94 83 79 79 86 112 128 138 144 152 162 173 197 222 216 193 212 13 359 19 23 25 27 25 26 32 36 34 30 29 25 26 26 25 20 19 19 18 18 13
106 156 164 142 135 119 105 92 82 114 114 159 148 141 135 141 153 164 173 179 192 205 215 205 203 210 89 1 15 28 31 30 31 34 42 52 48 39 34 29 22 20 20 19 13 14 11 12 11
83 0 135 112 97 77 91 102 91 109 168 154 147 144 145 155 170 179 183 187 188 193 214 212 176 151 144 87 58 55 44 38 35 38 49 57 48 35 27 26 17 16 12 10 9 6 4 10 12
88 44 45 82 85 78 81 86 91 76 102 114 125 137 155 171 183 187 180 179 180 187 199 187 152 141 134 106 83 79 62 51 49 49 47 59 59 38 28 22 20 14 11 8 2 3 4 7 6
158 93 71 82 84 77 97 73 82 109 117 122 137 157 172 182 183 169 172 182 185 186 178 159 149 146 129 107 94 86 77 70 63 50 48 57 59 49 35 22 16 9 4 4 5 5 2 0 3
83 71 60 59 94 98 106 65 112 151 130 138 160 174 182 199 191 188 188 184 181 177 168 158 149 125 118 112 109 99 90 80 65 54 52 56 54 48 43 27 11 359 0 7 12 10 14 13 13
75 74 77 2 87 106 116 138 177 146 138 154 172 183 191 211 212 203 185 173 166 157 155 144 128 116 109 102 98 90 83 74 58 50 48 48 46 48 47 31 7 360 9 14 11 12 12 9 8
52 107 107 26 29 95 114 151 188 142 147 170 183 188 196 216 236 213 181 166 161 156 143 121 112 113 107 96 89 82 73 60 47 43 40 38 39 45 50 33 9 9 17 14 12 20 17 6 1
150 133 117 112 14 98 105 97 61 156 154 172 179 183 193 203 229 193 159 150 145 137 127 120 108 104 101 90 80 68 57 41 36 32 30 33 35 40 44 35 17 17 19 14 13 16 19 15 358
136 121 115 123 78 105 108 92 60 108 144 163 181 179 194 226 242 127 134 136 130 129 129 130 119 116 110 98 95 88 63 23 12 11 18 24 27 31 40 34 20 19 24 13 9 13 18 14 1
118 109 99 57 57 99 94 68 51 65 174 189 190 187 184 175 107 106 118 125 135 141 139 133 130 127 121 112 113 112 110 65 3 353 10 19 19 19 26 34 18 13 18 17 17 22 18 15 21
123 149 160 140 79 61 85 32 14 352 24 87 138 168 175 167 161 144 126 128 132 141 148 143 133 127 122 110 94 74 55 35 17 8 0 360 9 18 25 28 26 18 25 18 14 21 36 21 15
168 179 165 142 111 58 89 144 270 272 304 212 210 178 192 169 158 152 143 137 143 151 142 133 128 121 113 111 106 103 92 67 343 329 340 351 11 17 20 23 27 25 23 20 12 31 33 45 22
162 130 115 113 112 80 44 130 265 225 232 231 223 201 189 176 166 162 157 144 132 133 132 128 120 111 106 105 109 103 93 86 12 7 11 7 4 13 17 22 26 20 15 15 19 26 36 44 48
128 94 66 48 78 135 217 161 246 220 213 203 197 187 177 167 147 140 123 112 106 110 120 125 120 110 106 104 102 107 107 92 61 32 17 3 356 357 8 17 22 19 15 8 10 22 31 34 46
113 115 103 76 39 238 224 190 239 238 213 190 183 180 167 152 143 136 124 126 125 124 126 130 127 120 113 107 102 107 110 103 90 55 22 9 1 354 348 3 7 9 7 11 18 28 22 20 27
171 166 160 169 188 236 217 228 253 274 197 152 151 152 146 146 147 142 142 142 140 134 131 133 133 129 121 116 111 99 100 100 87 68 56 1 324 315 327 358 7 6 10 19 25 25 12 20 17
144 170 156 124 118 115 261 282 306 140 134 141 145 148 161 163 156 147 141 139 141 140 142 143 137 128 124 121 110 97 92 93 84 57 45 9 335 338 355 7 11 8 13 17 26 23 12 14 13
150 145 117 126 140 183 266 254 226 205 193 180 171 174 174 164 154 148 147 145 144 141 131 124 125 125 122 121 117 108 96 87 80 68 41 15 359 360 6 12 13 11 13 17 26 15 9 21 7
144 139 132 120 144 153 207 257 221 197 188 185 189 184 177 171 166 160 151 141 132 122 121 119 118 114 111 113 111 99 85 77 73 62 28 13 11 11 16 14 24 21 15 15 25 16 17 21 5
176 175 157 154 188 172 174 261 269 200 188 182 180 178 174 165 158 153 144 134 127 125 124 122 122 120 122 119 110 100 86 76 69 50 27 28 28 18 22 32 34 26 19 17 19 7 12 13 356
Height
1506 1507 1507 1509 1512 1520 1524 1520 1516 1515 1514 1515 1514 1515 1517 1521 1525 1531 1529 1528 1529 1530 1531 1531 1532 1532 1533 1533 1534 1534 1534 1535 1535 1535 1535 1535 1535 1534 1534 1534 1533 1533 1533 1532 1532 1532 1531 1531 1531
1506 1506 1508 1509 1517 1528 1526 1518 1516 1514 1515 1515 1516 1517 1519 1523 1524 1527 1528 1529 1531 1531 1532 1532 1533 1533 1534 1534 1535 1535 1535 1535 1535 1536 1536 1535 1535 1535 1534 1534 1533 1533 1532 1532 1531 1531 1531 1531 1530
1505 1506 1508 1511 1519 1526 1523 1517 1515 1514 1515 1516 1518 1520 1522 1525 1526 1528 1529 1531 1532 1533 1533 1534 1534 1535 1535 1536 1536 1536 1536 1536 1536 1536 1536 1536 1535 1535 1534 1534 1533 1533 1532 1531 1531 1530 1530 1530 1529
1505 1508 1509 1515 1520 1518 1516 1515 1514 1515 1516 1517 1519 1522 1525 1527 1528 1530 1531 1532 1533 1534 1535 1536 1536 1536 1537 1537 1537 1537 1538 1538 1538 1538 1537 1537 1536 1536 1535 1534 1533 1532 1532 1531 1530 1530 1529 1529 1529
1506 1507 1513 1519 1519 1516 1514 1514 1514 1515 1517 1519 1520 1524 1527 1529 1530 1531 1533 1534 1535 1536 1537 1537 1538 1538 1538 1539 1539 1539 1539 1539 1539 1539 1538 1538 1537 1536 1536 1535 1534 1533 1532 1531 1530 1530 1529 1528 1528
1506 1507 1518 1524 1520 1515 1514 1514 1515 1516 1518 1520 1522 1525 1529 1531 1532 1533 1534 1536 1537 1538 1539 1539 1540 1540 1540 1540 1540 1541 1541 1541 1540 1540 1539 1539 1538 1537 1536 1535 1534 1533 1532 1531 1531 1530 1529 1528 1528
1508 1511 1518 1520 1520 1518 1515 1515 1516 1517 1520 1522 1523 1526 1530 1532 1534 1535 1536 1538 1539 1540 1541 1541 1541 1542 1542 1542 1543 1543 1543 1542 1542 1541 1541 1540 1539 1538 1537 1536 1535 1534 1533 1532 1531 1530 1529 1528 1528
1507 1512 1518 1520 1520 1519 1516 1516 1517 1518 1521 1523 1525 1527 1530 1533 1534 1536 1538 1539 1541 1542 1543 1543 1543 1544 1544 1544 1544 1544 1544 1544 1543 1543 1542 1541 1540 1539 1537 1536 1535 1534 1533 1532 1531 1530 1529 1528 1528
1509 1516 1521 1519 1519 1518 1516 1517 1519 1520 1522 1524 1525 1527 1530 1533 1535 1537 1539 1541 1542 1543 1544 1545 1545 1545 1546 1546 1546 1546 1546 1545 1545 1544 1543 1541 1540 1539 1538 1537 1535 1534 1533 1532 1531 1530 1529 1528 1528
1510 1517 1516 1514 1515 1516 1516 1517 1519 1521 1523 1525 1527 1529 1532 1534 1537 1539 1540 1542 1543 1545 1545 1546 1547 1547 1547 1547 1548 1547 1547 1546 1546 1545 1543 1542 1541 1540 1538 1537 1536 1534 1533 1532 1530 1529 1528 1528 1527
1510 1513 1512 1513 1514 1515 1517 1519 1520 1522 1525 1526 1527 1530 1533 1536 1538 1540 1542 1544 1545 1546 1547 1547 1548 1548 1549 1549 1549 1549 1548 1548 1547 1546 1544 1543 1542 1540 1539 1537 1536 1535 1533 1532 1530 1529 1528 1528 1527
1511 1512 1512 1513 1514 1516 1518 1519 1521 1523 1525 1526 1529 1531 1534 1537 1539 1541 1543 1545 1546 1547 1548 1549 1549 1550 1550 1550 1550 1550 1549 1549 1548 1547 1545 1544 1542 1541 1539 1538 1536 1535 1533 1532 1530 1529 1528 1528 1527
1512 1513 1513 1514 1515 1517 1519 1520 1522 1525 1526 1528 1531 1534 1536 1538 1541 1543 1545 1546 1547 1548 1549 1550 1550 1551 1551 1551 1551 1551 1550 1550 1549 1547 1546 1544 1543 1541 1540 1538 1537 1535 1534 1532 1531 1529 1529 1528 1527
1512 1513 1515 1516 1517 1519 1520 1522 1524 1527 1528 1530 1533 1535 1538 1540 1542 1544 1545 1547 1548 1549 1550 1551 1551 1552 1552 1552 1552 1552 1551 1551 1550 1548 1546 1545 1544 1542 1541 1539 1537 1536 1534 1533 1531 1530 1529 1528 1527
1513 1515 1517 1518 1519 1521 1522 1526 1526 1528 1529 1531 1534 1536 1538 1540 1542 1544 1545 1547 1549 1550 1551 1552 1552 1553 1553 1553 1553 1553 1552 1552 1551 1549 1547 1546 1545 1543 1541 1540 1538 1536 1535 1533 1532 1530 1529 1528 1527
1515 1520 1525 1522 1520 1522 1526 1533 1528 1528 1530 1532 1535 1537 1539 1541 1543 1544 1546 1548 1549 1551 1552 1553 1553 1553 1554 1554 1554 1554 1554 1553 1552 1550 1549 1547 1546 1544 1542 1541 1539 1538 1536 1535 1533 1531 1530 1529 1528
1522 1527 1528 1525 1522 1522 1526 1531 1529 1529 1531 1533 1535 1537 1539 1541 1543 1544 1546 1548 1550 1551 1553 1553 1554 1554 1555 1555 1555 1555 1555 1554 1553 1552 1550 1549 1547 1545 1544 1542 1540 1539 1537 1536 1534 1532 1531 1530 1529
1528 1528 1528 1529 1525 1525 1528 1531 1530 1530 1531 1533 1535 1537 1539 1541 1542 1544 1546 1548 1550 1552 1553 1554 1555 1555 1556 1556 1556 1556 1556 1555 1554 1553 1552 1550 1549 1547 1545 1544 1542 1541 1539 1537 1535 1534 1532 1531 1530
1522 1526 1529 1529 1525 1528 1531 1533 1532 1532 1533 1534 1535 1537 1539 1540 1542 1544 1545 1548 1550 1552 1553 1555 1555 1556 1556 1557 1557 1557 1557 1556 1555 1554 1553 1552 1550 1549 1547 1545 1544 1542 1540 1539 1537 1535 1534 1532 1531
1523 1528 1531 1529 1526 1529 1534 1536 1534 1534 1534 1535 1535 1537 1538 1540 1542 1543 1545 1548 1550 1552 1553 1555 1556 1557 1557 1558 1558 1558 1557 1557 1556 1555 1554 1553 1552 1550 1549 1547 1546 1544 1542 1540 1539 1537 1535 1534 1533
1525 1529 1531 1532 1530 1531 1535 1541 1538 1536 1535 1536 1536 1537 1538 1540 1541 1543 1545 1547 1549 1551 1553 1555 1556 1557 1558 1558 1558 1558 1558 1558 1557 1556 1555 1554 1553 1552 1550 1549 1547 1546 1544 1542 1540 1539 1537 1536 1535
1529 1524 1526 1529 1537 1543 1540 1552 1541 1538 1537 1536 1536 1537 1538 1540 1541 1543 1545 1547 1549 1551 1553 1555 1556 1558 1558 1559 1559 1559 1559 1558 1558 1557 1556 1555 1554 1553 1552 1550 1549 1547 1546 1544 1542 1541 1539 1538 1537
1524 1523 1527 1531 1538 1545 1544 1550 1547 1539 1538 1536 1535 1536 1537 1539 1540 1542 1544 1546 1549 1551 1553 1555 1556 1557 1558 1559 1559 1559 1559 1559 1558 1557 1557 1556 1555 1554 1552 1551 1550 1549 1547 1546 1544 1543 1541 1540 1539
1522 1527 1531 1536 1541 1553 1547 1551 1549 1540 1534 1532 1533 1534 1536 1538 1540 1542 1544 1546 1548 1550 1552 1554 1556 1557 1558 1559 1559 1559 1559 1559 1558 1558 1557 1556 1555 1554 1553 1552 1551 1550 1548 1547 1546 1544 1543 1542 1540
1524 1535 1548 1552 1556 1555 1545 1547 1544 1530 1527 1528 1530 1532 1535 1537 1539 1541 1543 1546 1548 1550 1552 1554 1555 1557 1558 1559 1559 1559 1559 1559 1559 1558 1557 1557 1556 1555 1554 1553 1552 1550 1549 1548 1547 1546 1544 1543 1542
1525 1531 1546 1555 1557 1555 1546 1547 1536 1526 1525 1526 1529 1531 1534 1536 1538 1541 1543 1545 1547 1549 1551 1553 1555 1556 1558 1558 1559 1559 1559 1559 1559 1558 1558 1557 1556 1555 1554 1553 1552 1551 1550 1549 1547 1546 1545 1544 1543
1526 1529 1529 1541 1548 1554 1550 1542 1531 1525 1525 1526 1528 1530 1533 1535 1538 1540 1543 1545 1547 1549 1551 1553 1555 1556 1557 1558 1559 1559 1559 1559 1558 1558 1558 1557 1556 1555 1554 1553 1552 1551 1550 1549 1548 1547 1546 1544 1544
1519 1524 1534 1541 1552 1557 1550 1544 1537 1527 1525 1525 1526 1528 1531 1534 1537 1540 1542 1544 1547 1549 1551 1553 1554 1556 1557 1558 1558 1558 1559 1558 1558 1558 1557 1556 1556 1555 1554 1553 1552 1551 1550 1549 1548 1547 1546 1545 1544
1522 1526 1529 1537 1539 1552 1556 1543 1517 1516 1517 1520 1522 1525 1529 1532 1535 1538 1541 1544 1546 1548 1550 1552 1553 1555 1556 1557 1557 1558 1558 1558 1557 1557 1557 1556 1555 1555 1554 1553 1552 1551 1549 1548 1547 1546 1545 1544 1544
1512 1517 1524 1534 1540 1542 1546 1537 1509 1510 1512 1515 1519 1523 1527 1531 1534 1537 1540 1543 1545 1547 1549 1551 1553 1554 1555 1556 1557 1557 1557 1557 1557 1556 1556 1555 1555 1554 1553 1552 1551 1550 1549 1548 1547 1546 1545 1544 1543